Date,TemperatureHighF,TemperatureAvgF,TemperatureLowF,DewpointHighF,DewpointAvgF,DewpointLowF,HumidityHigh,HumidityAvg,HumidityLow,PressureMaxIn,PressureMinIn,WindSpeedMaxMPH,WindSpeedAvgMPH,GustSpeedMaxMPH,PrecipitationSumIn
2013-2-1,74.2,61.2,49.7,59.0,49.2,38.0,79,65,57,30.28,30.18,3,1,7,0.00
2013-2-2,74.9,61.7,52.4,54.0,48.9,39.0,92,65,44,30.27,30.13,4,0,7,0.00
2013-2-3,75.9,60.8,50.4,53.0,49.2,43.0,96,70,32,30.18,30.09,2,0,7,0.00
2013-2-4,74.9,60.8,47.2,54.0,48.0,41.0,93,66,32,30.15,30.04,4,0,6,0.00
2013-2-5,78.5,65.3,49.6,62.0,56.0,48.0,96,74,48,30.10,30.02,3,0,6,0.00
2013-2-6,81.7,69.7,57.8,68.0,61.9,57.0,97,77,59,30.12,30.03,6,1,8,0.00
2013-2-7,80.2,74.1,70.3,69.0,65.5,62.0,85,75,67,30.09,29.94,5,1,9,0.00
2013-2-8,82.3,72.2,65.8,69.0,66.4,59.0,96,83,47,30.04,29.91,4,1,8,0.00
2013-2-9,81.4,71.1,62.6,68.0,63.3,60.0,97,78,58,30.19,30.03,4,1,12,0.00
2013-2-10,75.7,71.9,69.7,63.0,61.7,59.0,77,70,62,30.28,30.17,9,2,11,0.00
2013-2-11,80.3,73.9,69.6,66.0,63.4,61.0,79,70,55,30.23,30.12,6,1,12,0.00
2013-2-12,82.4,73.2,61.5,70.0,67.0,60.0,97,81,63,30.13,29.97,6,1,10,0.00
2013-2-13,81.9,74.5,65.7,74.0,69.5,65.0,97,85,71,30.01,29.88,8,1,9,0.00
2013-2-14,72.6,67.8,63.2,71.0,66.4,62.0,97,95,90,30.03,29.89,6,0,8,0.95
2013-2-15,71.9,66.0,62.9,68.0,64.4,62.0,97,94,85,30.04,29.95,2,0,4,0.21
2013-2-16,74.1,64.0,52.2,63.0,55.6,43.0,97,76,48,30.09,29.88,5,1,14,0.00
2013-2-17,58.9,50.9,43.5,43.0,32.4,22.0,73,51,30,30.31,30.09,5,1,12,0.00
2013-2-18,69.5,58.8,45.0,55.0,44.1,30.0,76,59,46,30.34,30.22,8,2,11,0.00
2013-2-19,78.3,70.6,58.4,66.0,61.1,53.0,96,73,54,30.22,30.09,6,1,13,0.11
2013-2-20,79.5,69.6,61.3,68.0,64.7,61.0,98,85,65,30.13,30.02,2,0,5,0.01
2013-2-21,80.1,71.8,61.5,71.0,66.6,61.0,98,84,70,30.11,30.01,6,1,7,0.00
2013-2-22,82.8,76.1,72.3,73.0,70.2,67.0,87,82,71,30.11,30.03,9,2,13,0.00
2013-2-23,83.5,76.4,71.9,73.0,71.0,69.0,94,84,68,30.05,29.92,7,1,11,0.26
2013-2-24,88.2,76.6,70.0,75.0,71.8,68.0,97,86,52,30.00,29.90,4,0,6,0.01
2013-2-25,83.8,75.0,67.8,75.0,71.2,67.0,97,88,71,29.93,29.83,5,1,10,0.39
2013-2-26,87.5,78.5,74.0,74.0,71.8,69.0,93,80,54,29.89,29.80,5,1,10,0.01
2013-2-27,76.0,69.7,64.3,73.0,64.5,60.0,96,84,65,29.97,29.87,2,0,6,0.16
2013-2-28,70.1,62.7,57.7,63.0,54.3,51.0,94,75,52,30.02,29.91,7,0,7,0.00